Voltar ao catálogo

COSMOS 1621

AtivoMilitarPO
NORAD 15473·PAYLOAD·🇷🇺 Russia

Lançado Jan 15, 1985 de Plesetsk Cosmodrome

Loading…

Próximas Passagens (próximas 24 horas)

TLE

AtualizadoSource: Space-Track

Época: Sep 14, 2026, 14:38 UTC

1 15473U 85003E   26257.61026088  .00000010  00000-0 -11838-5 0  9997
2 15473  82.6153  19.4409 0011133 300.5126  70.2060 12.64481979922863

Acompanhe COSMOS 1621 em tempo real com AllMySat

Download on the App Store